Location: ??
(35.5052°N, 139.7262°E)
Time: 10:45:39
(UTC+00:00)

Delta 2 Rocket - Visible Passes

Search period start: 26 October 2021 00:00
Search period end: 05 November 2021 00:00
Orbit: 415 x 798 km, 35.6° (Epoch: 25 October)

Date Brightness Start Highest point End Pass type
(mag) Time Alt. Az. Time Alt. Az. Time Alt. Az.
26 Oct 2.9 08:30:27 10° W 08:34:11 87° N 08:37:07 14° E visible
26 Oct 5.6 10:12:49 10° W 10:13:54 18° W 10:13:54 18° W visible
27 Oct 2.9 08:42:46 10° W 08:46:30 82° S 08:48:51 19° ESE visible
27 Oct 6.2 10:25:20 10° W 10:25:38 12° W 10:25:38 12° W visible
28 Oct 3.2 08:55:05 10° W 08:58:47 61° SSW 09:00:39 24° ESE visible
29 Oct 4.0 09:07:27 10° W 09:10:58 39° SSW 09:12:32 24° SSE visible
30 Oct 4.8 09:20:01 10° W 09:23:05 24° SSW 09:24:30 19° S visible
31 Oct 5.6 09:33:05 10° WSW 09:35:05 14° SSW 09:36:36 11° S visible
02 Nov 5.5 08:14:29 10° W 08:17:42 22° SSW 08:20:37 10° SSE visible
03 Nov 6.0 08:27:48 10° WSW 08:29:37 13° SW 08:31:22 10° S visible
